,,PA_Meas_PMT16A,,PR_Meas_QMR101_102,,RH_Meas_QMH101,,SR_Meas_QMS101,,TA_Meas_QMH101,,GenWind,,GenWind,
time,status,PA,status,PR,status,RH,status,SR,status,TA,status,DirAvg,status,SpdAvg,
2011-07-03, 00:00:04,VALID,918.235,VALID,0,VALID,94.3474,VALID,0,VALID,18.0651,VALID,256,VALID,0.564844,
2011-07-03, 00:01:04,VALID,918.248,VALID,0,VALID,94.9268,VALID,0,VALID,18.1445,VALID,256,VALID,0.0273438,
2011-07-03, 00:02:04,VALID,918.278,VALID,0,VALID,94.9649,VALID,0,VALID,18.1236,VALID,256,VALID,0,
2011-07-03, 00:03:04,VALID,918.271,VALID,0,VALID,95.125,VALID,0,VALID,18.1041,VALID,256,VALID,0.141797,
2011-07-03, 00:04:04,VALID,918.27,VALID,0,VALID,95.5214,VALID,0,VALID,18.242,VALID,256,VALID,0.591016,
2011-07-03, 00:05:04,VALID,918.274,VALID,0,VALID,95.7882,VALID,0,VALID,18.2809,VALID,256,VALID,0.366016,
2011-07-03, 00:06:04,VALID,918.252,VALID,0,VALID,95.8111,VALID,0,VALID,18.2406,VALID,256,VALID,0.643359,
2011-07-03, 00:07:04,VALID,918.262,VALID,0,VALID,95.5595,VALID,0,VALID,18.1417,VALID,256,VALID,0.788281,
2011-07-03, 00:08:04,VALID,918.247,VALID,0,VALID,95.3003,VALID,0.107441,VALID,18.1236,VALID,256,VALID,0.866016,
2011-07-03, 00:09:04,VALID,918.23,VALID,0,VALID,94.8429,VALID,0,VALID,17.9677,VALID,256,VALID,0.571094,
2011-07-03, 00:10:04,VALID,918.275,VALID,0,VALID,95.0183,VALID,0,VALID,17.9886,VALID,256,VALID,0.0945313,
2011-07-03, 00:11:04,VALID,918.298,VALID,0,VALID,95.2241,VALID,0,VALID,17.9482,VALID,256,VALID,0.68125,
2011-07-03, 00:12:04,VALID,918.32,VALID,0,VALID,95.4528,VALID,0,VALID,18.008,VALID,256,VALID,0.360547,
2011-07-03, 00:13:04,VALID,918.323,VALID,0,VALID,95.6967,VALID,0,VALID,18.0443,VALID,256,VALID,0,
2011-07-03, 00:14:04,VALID,918.305,VALID,0,VALID,95.7806,VALID,0,VALID,18.086,VALID,256,VALID,0.142188,
2011-07-03, 00:15:04,VALID,918.285,VALID,0,VALID,95.4909,VALID,0,VALID,17.9872,VALID,256,VALID,0.166016,
2011-07-03, 00:16:04,VALID,918.284,VALID,0,VALID,95.7044,VALID,0.107441,VALID,18.0262,VALID,256,VALID,0.319531,
2011-07-03, 00:17:04,VALID,918.239,VALID,0,VALID,95.8797,VALID,0,VALID,18.0846,VALID,256,VALID,0.207031,
2011-07-03, 00:18:04,VALID,918.223,VALID,0,VALID,95.8721,VALID,0,VALID,18.0846,VALID,256,VALID,0.157031,
2011-07-03, 00:19:04,VALID,918.151,VALID,0,VALID,95.9178,VALID,0,VALID,18.1041,VALID,256,VALID,0.00703125,
2011-07-03, 00:20:04,VALID,918.096,VALID,0,VALID,95.9102,VALID,0.107441,VALID,18.1236,VALID,256,VALID,0,
2011-07-03, 00:21:04,VALID,918.101,VALID,0,VALID,95.9178,VALID,0,VALID,18.1431,VALID,256,VALID,0,
2011-07-03, 00:22:04,VALID,918.091,VALID,0,VALID,96.0703,VALID,0,VALID,18.2225,VALID,256,VALID,0.324609,
2011-07-03, 00:23:04,VALID,918.059,VALID,0,VALID,96.177,VALID,0,VALID,18.2601,VALID,256,VALID,0.187109,
2011-07-03, 00:24:04,VALID,918.068,VALID,0,VALID,96.2228,VALID,0,VALID,18.299,VALID,256,VALID,0,
2011-07-03, 00:25:04,VALID,918.057,VALID,0,VALID,96.238,VALID,0,VALID,18.3394,VALID,256,VALID,0,
2011-07-03, 00:26:04,VALID,918.046,VALID,0,VALID,96.3142,VALID,0,VALID,18.377,VALID,256,VALID,0.639844,
2011-07-03, 00:27:04,VALID,918.034,VALID,0,VALID,96.0779,VALID,0,VALID,18.3199,VALID,256,VALID,0.54375,
2011-07-03, 00:28:04,VALID,918.033,VALID,0,VALID,96.2837,VALID,0,VALID,18.299,VALID,256,VALID,0.303906,
2011-07-03, 00:29:04,VALID,918.043,VALID,0,VALID,96.3752,VALID,0,VALID,18.377,VALID,256,VALID,0.200781,
2011-07-03, 00:30:04,VALID,918.045,VALID,0,VALID,96.4362,VALID,0,VALID,18.3756,VALID,256,VALID,0.314453,
2011-07-03, 00:31:04,VALID,918.048,VALID,0,VALID,96.1923,VALID,0,VALID,18.3965,VALID,256,VALID,0.585938,
2011-07-03, 00:32:04,VALID,918.041,VALID,0,VALID,96.2533,VALID,0,VALID,18.501,VALID,256,VALID,0.808594,
2011-07-03, 00:33:04,VALID,918.038,VALID,0,VALID,96.2609,VALID,0,VALID,18.3172,VALID,256,VALID,0.790234,
2011-07-03, 00:34:04,VALID,918.005,VALID,0,VALID,96.3524,VALID,0,VALID,18.3547,VALID,256,VALID,0.596875,
2011-07-03, 00:35:04,VALID,918.011,VALID,0,VALID,96.2456,VALID,0,VALID,18.377,VALID,256,VALID,0.367578,
2011-07-03, 00:36:04,VALID,917.995,VALID,0,VALID,96.4667,VALID,0,VALID,18.4118,VALID,256,VALID,0.364062,
2011-07-03, 00:37:04,VALID,917.985,VALID,0,VALID,96.421,VALID,0,VALID,18.5135,VALID,256,VALID,0,
2011-07-03, 00:38:04,VALID,917.942,VALID,0,VALID,96.3752,VALID,0.107441,VALID,18.4912,VALID,256,VALID,0.0617188,
2011-07-03, 00:39:05,VALID,917.862,VALID,0,VALID,96.0398,VALID,0,VALID,18.4132,VALID,256,VALID,0.525,
2011-07-03, 00:40:05,VALID,917.889,VALID,0,VALID,95.651,VALID,0,VALID,18.2949,VALID,256,VALID,0.571094,
2011-07-03, 00:41:05,VALID,917.854,VALID,0,VALID,95.7882,VALID,0,VALID,18.4383,VALID,256,VALID,0.492578,
2011-07-03, 00:42:05,VALID,917.859,VALID,0,VALID,95.8416,VALID,0.107441,VALID,18.4369,VALID,256,VALID,0.19375,
2011-07-03, 00:43:05,VALID,917.826,VALID,0,VALID,95.8111,VALID,0,VALID,18.416,VALID,256,VALID,0,
2011-07-03, 00:44:05,VALID,917.827,VALID,0,VALID,95.7958,VALID,0,VALID,18.4996,VALID,256,VALID,0,
2011-07-03, 00:45:05,VALID,917.817,VALID,0,VALID,95.712,VALID,0,VALID,18.3784,VALID,256,VALID,0,
2011-07-03, 00:46:05,VALID,917.841,VALID,0,VALID,95.3842,VALID,0,VALID,18.3199,VALID,256,VALID,0.516797,
2011-07-03, 00:47:05,VALID,917.855,VALID,0,VALID,94.9268,VALID,0,VALID,18.1417,VALID,256,VALID,0.384766,
2011-07-03, 00:48:05,VALID,917.798,VALID,0,VALID,94.8963,VALID,0,VALID,18.1236,VALID,256,VALID,0.221094,
2011-07-03, 00:49:05,VALID,917.817,VALID,0,VALID,94.4846,VALID,0,VALID,17.9858,VALID,256,VALID,0.314844,
2011-07-03, 00:50:05,VALID,917.761,VALID,0,VALID,94.2788,VALID,0,VALID,17.9092,VALID,256,VALID,0.578906,
2011-07-03, 00:51:05,VALID,917.753,VALID,0,VALID,94.0806,VALID,0,VALID,17.7936,VALID,256,VALID,0.634766,
2011-07-03, 00:52:05,VALID,917.699,VALID,0,VALID,94.9954,VALID,0,VALID,17.7923,VALID,256,VALID,0.828125,
2011-07-03, 00:53:05,VALID,917.707,VALID,0,VALID,95.651,VALID,0,VALID,17.8702,VALID,256,VALID,0.846484,
2011-07-03, 00:54:05,VALID,917.668,VALID,0,VALID,96.0855,VALID,0.107441,VALID,18.0275,VALID,256,VALID,0.481641,
2011-07-03, 00:55:05,VALID,917.685,VALID,0,VALID,96.299,VALID,0,VALID,18.0262,VALID,256,VALID,0.460938,
2011-07-03, 00:56:05,VALID,917.622,VALID,0,VALID,96.4438,VALID,0,VALID,18.1069,VALID,256,VALID,0.472656,
2011-07-03, 00:57:05,VALID,917.606,VALID,0,VALID,96.5887,VALID,0,VALID,18.203,VALID,256,VALID,0.120312,
2011-07-03, 00:58:05,VALID,917.613,VALID,0,VALID,96.5582,VALID,0,VALID,18.2183,VALID,256,VALID,0,
2011-07-03, 00:59:05,VALID,917.618,VALID,0,VALID,96.6725,VALID,0,VALID,18.3993,VALID,256,VALID,0.281641,
2011-07-03, 01:00:05,VALID,917.596,VALID,0,VALID,96.4286,VALID,0,VALID,18.2573,VALID,256,VALID,0.327344,
2011-07-03, 01:01:05,VALID,917.54,VALID,0,VALID,96.0322,VALID,0,VALID,18.1236,VALID,256,VALID,0.633203,
2011-07-03, 01:02:05,VALID,917.552,VALID,0,VALID,96.3219,VALID,0,VALID,18.242,VALID,256,VALID,0.429688,
2011-07-03, 01:03:05,VALID,917.518,VALID,0,VALID,96.4286,VALID,0,VALID,18.299,VALID,256,VALID,0.286328,
2011-07-03, 01:04:05,VALID,917.539,VALID,0,VALID,96.4819,VALID,0,VALID,18.3784,VALID,256,VALID,0.395312,
2011-07-03, 01:05:05,VALID,917.499,VALID,0,VALID,96.5048,VALID,0,VALID,18.4174,VALID,256,VALID,0.339844,
2011-07-03, 01:06:05,VALID,917.452,VALID,0,VALID,96.3905,VALID,0.107441,VALID,18.3965,VALID,256,VALID,0.0765625,
2011-07-03, 01:07:05,VALID,917.474,VALID,0,VALID,96.2456,VALID,0,VALID,18.3575,VALID,256,VALID,0,
2011-07-03, 01:08:05,VALID,917.438,VALID,0,VALID,96.1846,VALID,0,VALID,18.3185,VALID,256,VALID,0,
2011-07-03, 01:09:05,VALID,917.394,VALID,0,VALID,96.1846,VALID,0,VALID,18.338,VALID,256,VALID,0,
2011-07-03, 01:10:05,VALID,917.382,VALID,0,VALID,96.1313,VALID,0,VALID,18.3185,VALID,256,VALID,0,
2011-07-03, 01:11:05,VALID,917.368,VALID,0,VALID,96.0932,VALID,0,VALID,18.3185,VALID,256,VALID,0.00351562,
2011-07-03, 01:12:05,VALID,917.365,VALID,0,VALID,95.8416,VALID,0,VALID,18.2406,VALID,256,VALID,0.428906,
2011-07-03, 01:13:05,VALID,917.341,VALID,0,VALID,95.8492,VALID,0.107441,VALID,18.2211,VALID,256,VALID,0.187891,
2011-07-03, 01:14:05,VALID,917.298,VALID,0,VALID,95.834,VALID,0,VALID,18.2016,VALID,256,VALID,0,
2011-07-03, 01:15:05,VALID,917.295,VALID,0,VALID,95.9331,VALID,0,VALID,18.242,VALID,256,VALID,0.362109,
2011-07-03, 01:16:05,VALID,917.242,VALID,0,VALID,95.9483,VALID,0,VALID,18.3004,VALID,256,VALID,0.36875,
2011-07-03, 01:17:05,VALID,917.251,VALID,0,VALID,95.9178,VALID,0,VALID,18.299,VALID,256,VALID,0.0140625,
2011-07-03, 01:18:05,VALID,917.273,VALID,0,VALID,95.8721,VALID,0,VALID,18.3394,VALID,256,VALID,0,
2011-07-03, 01:19:05,VALID,917.275,VALID,0,VALID,95.9483,VALID,0,VALID,18.3965,VALID,256,VALID,0.0238281,
2011-07-03, 01:20:05,VALID,917.224,VALID,0,VALID,95.9407,VALID,0,VALID,18.4745,VALID,256,VALID,0.296094,
2011-07-03, 01:21:05,VALID,917.237,VALID,0,VALID,95.9483,VALID,0,VALID,18.5525,VALID,256,VALID,0.616797,
2011-07-03, 01:22:05,VALID,917.25,VALID,0,VALID,95.7044,VALID,0,VALID,18.5135,VALID,256,VALID,0.363281,
2011-07-03, 01:23:05,VALID,917.217,VALID,0,VALID,95.7044,VALID,0,VALID,18.533,VALID,256,VALID,0.626562,
2011-07-03, 01:24:05,VALID,917.245,VALID,0,VALID,95.7349,VALID,0,VALID,18.572,VALID,256,VALID,0.572656,
2011-07-03, 01:25:05,VALID,917.243,VALID,0,VALID,95.6053,VALID,0.107441,VALID,18.5525,VALID,256,VALID,0.31875,
2011-07-03, 01:26:05,VALID,917.275,VALID,0,VALID,95.5138,VALID,0,VALID,18.4731,VALID,256,VALID,0.0597656,
2011-07-03, 01:27:05,VALID,917.285,VALID,0,VALID,95.3689,VALID,0,VALID,18.455,VALID,256,VALID,0,
2011-07-03, 01:28:05,VALID,917.277,VALID,0,VALID,95.3766,VALID,0,VALID,18.4355,VALID,256,VALID,0.354297,
2011-07-03, 01:29:05,VALID,917.286,VALID,0,VALID,95.2393,VALID,0,VALID,18.4369,VALID,256,VALID,0.411328,
2011-07-03, 01:30:05,VALID,917.307,VALID,0,VALID,94.82,VALID,0,VALID,18.299,VALID,256,VALID,0.704687,
2011-07-03, 01:31:05,VALID,917.336,VALID,0,VALID,95.2775,VALID,0,VALID,18.338,VALID,256,VALID,0.603125,
2011-07-03, 01:32:05,VALID,917.309,VALID,0,VALID,95.1555,VALID,0,VALID,18.2615,VALID,256,VALID,0.307031,
2011-07-03, 01:33:05,VALID,917.305,VALID,0,VALID,95.529,VALID,0,VALID,18.2796,VALID,256,VALID,0.439453,
2011-07-03, 01:34:05,VALID,917.321,VALID,0,VALID,95.6586,VALID,0.107441,VALID,18.299,VALID,256,VALID,0,
2011-07-03, 01:35:05,VALID,917.294,VALID,0,VALID,95.3308,VALID,0,VALID,18.1821,VALID,256,VALID,0.343359,
2011-07-03, 01:36:05,VALID,917.291,VALID,0,VALID,95.5595,VALID,0,VALID,18.2016,VALID,256,VALID,0.468359,
2011-07-03, 01:37:05,VALID,917.292,VALID,0,VALID,95.6053,VALID,0,VALID,18.2016,VALID,256,VALID,0.189453,
2011-07-03, 01:38:05,VALID,917.28,VALID,0,VALID,95.7806,VALID,0,VALID,18.2016,VALID,256,VALID,0.446875,
2011-07-03, 01:39:05,VALID,917.24,VALID,0,VALID,96.0474,VALID,0,VALID,18.3185,VALID,256,VALID,0.3625,
2011-07-03, 01:40:05,VALID,917.216,VALID,0,VALID,95.8797,VALID,0,VALID,18.2796,VALID,256,VALID,0.428906,
2011-07-03, 01:41:05,VALID,917.199,VALID,0,VALID,94.5685,VALID,0,VALID,18.0067,VALID,256,VALID,0.768359,
2011-07-03, 01:42:05,VALID,917.15,VALID,0,VALID,95.1707,VALID,0,VALID,18.0457,VALID,256,VALID,0.791406,
2011-07-03, 01:43:05,VALID,917.15,VALID,0,VALID,95.4147,VALID,0,VALID,18.0262,VALID,256,VALID,0.720703,
2011-07-03, 01:44:05,VALID,917.154,VALID,0,VALID,95.5138,VALID,0,VALID,18.0067,VALID,256,VALID,0.733594,
2011-07-03, 01:45:05,VALID,917.146,VALID,0,VALID,95.4757,VALID,0,VALID,17.9872,VALID,256,VALID,0.608984,
2011-07-03, 01:46:05,VALID,917.145,VALID,0,VALID,95.3766,VALID,0.107441,VALID,17.9287,VALID,256,VALID,0.248047,
2011-07-03, 01:47:05,VALID,917.161,VALID,0,VALID,95.4375,VALID,0,VALID,17.9287,VALID,256,VALID,0,
2011-07-03, 01:48:05,VALID,917.133,VALID,0,VALID,95.5595,VALID,0,VALID,17.9677,VALID,256,VALID,0.278516,
2011-07-03, 01:49:05,VALID,917.108,VALID,0,VALID,95.5367,VALID,0,VALID,17.9872,VALID,256,VALID,0.190234,
2011-07-03, 01:50:05,VALID,917.116,VALID,0,VALID,95.4452,VALID,0,VALID,17.9872,VALID,256,VALID,0.185156,
2011-07-03, 01:51:05,VALID,917.092,VALID,0,VALID,95.3232,VALID,0,VALID,17.9872,VALID,256,VALID,0.407422,
2011-07-03, 01:52:05,VALID,917.083,VALID,0,VALID,95.3003,VALID,0,VALID,17.9677,VALID,256,VALID,0.354688,
2011-07-03, 01:53:05,VALID,917.074,VALID,0,VALID,95.2927,VALID,0,VALID,17.9872,VALID,256,VALID,0.0488281,
2011-07-03, 01:54:05,VALID,917.058,VALID,0,VALID,95.125,VALID,0,VALID,17.9691,VALID,256,VALID,0,
2011-07-03, 01:55:05,VALID,917.059,VALID,0,VALID,94.9954,VALID,0,VALID,17.9482,VALID,256,VALID,0,
2011-07-03, 01:56:05,VALID,917.078,VALID,0,VALID,94.9268,VALID,0,VALID,17.9482,VALID,256,VALID,0,
2011-07-03, 01:57:05,VALID,917.05,VALID,0,VALID,94.8353,VALID,0,VALID,17.9691,VALID,256,VALID,0,
2011-07-03, 01:58:05,VALID,917.055,VALID,0,VALID,94.8963,VALID,0,VALID,18.0067,VALID,256,VALID,0.238672,
2011-07-03, 01:59:05,VALID,917.027,VALID,0,VALID,94.6752,VALID,0,VALID,18.1041,VALID,256,VALID,0.483984,
2011-07-03, 02:00:05,VALID,917.052,VALID,0,VALID,94.233,VALID,0,VALID,18.1821,VALID,256,VALID,0.400391,
2011-07-03, 02:01:05,VALID,917.03,VALID,0,VALID,93.7985,VALID,0,VALID,18.2796,VALID,256,VALID,0.142969,
2011-07-03, 02:02:05,VALID,917.031,VALID,0,VALID,93.3259,VALID,0,VALID,18.3199,VALID,256,VALID,0,
2011-07-03, 02:03:05,VALID,917.048,VALID,0,VALID,92.8913,VALID,0,VALID,18.3185,VALID,256,VALID,0,
2011-07-03, 02:04:05,VALID,917.019,VALID,0,VALID,92.1976,VALID,0,VALID,18.299,VALID,256,VALID,0,
2011-07-03, 02:05:05,VALID,916.992,VALID,0,VALID,91.5039,VALID,0,VALID,18.3199,VALID,256,VALID,0.557422,
2011-07-03, 02:06:05,VALID,916.963,VALID,0,VALID,92.0909,VALID,0,VALID,18.2809,VALID,256,VALID,0.801562,
2011-07-03, 02:07:05,VALID,916.963,VALID,0,VALID,92.5254,VALID,0,VALID,18.2601,VALID,256,VALID,0.774609,
2011-07-03, 02:08:05,VALID,916.94,VALID,0,VALID,92.2128,VALID,0,VALID,18.3394,VALID,256,VALID,0.708594,
2011-07-03, 02:09:05,VALID,916.933,VALID,0,VALID,91.481,VALID,0,VALID,18.4355,VALID,256,VALID,0.639063,
2011-07-03, 02:10:05,VALID,916.946,VALID,0,VALID,90.9016,VALID,0,VALID,18.5135,VALID,256,VALID,0.531641,
2011-07-03, 02:11:05,VALID,916.986,VALID,0,VALID,90.4518,VALID,0,VALID,18.5525,VALID,256,VALID,0.502344,
2011-07-03, 02:12:05,VALID,916.976,VALID,0,VALID,90.3375,VALID,0,VALID,18.6109,VALID,256,VALID,0.867578,
2011-07-03, 02:13:05,VALID,916.989,VALID,0,VALID,89.3998,VALID,0,VALID,18.6694,VALID,256,VALID,0.664063,
2011-07-03, 02:14:05,VALID,916.992,VALID,0,VALID,89.9029,VALID,0,VALID,18.7084,VALID,256,VALID,0.535156,
2011-07-03, 02:15:05,VALID,917.035,VALID,0,VALID,89.5675,VALID,0,VALID,18.7098,VALID,256,VALID,0.580469,
2011-07-03, 02:16:05,VALID,917.019,VALID,0,VALID,90.2765,VALID,0,VALID,18.7293,VALID,256,VALID,0.517578,
2011-07-03, 02:17:05,VALID,917.026,VALID,0,VALID,90.3299,VALID,0,VALID,18.6708,VALID,256,VALID,0.0429688,
2011-07-03, 02:18:05,VALID,917.047,VALID,0,VALID,90.7187,VALID,0,VALID,18.6124,VALID,256,VALID,0.708594,
2011-07-03, 02:19:05,VALID,917.049,VALID,0,VALID,90.9702,VALID,0,VALID,18.5734,VALID,256,VALID,0.340234,
2011-07-03, 02:20:05,VALID,917.046,VALID,0,VALID,92.0909,VALID,0,VALID,18.5929,VALID,256,VALID,0.532422,
2011-07-03, 02:21:05,VALID,917.071,VALID,0,VALID,91.4352,VALID,0,VALID,18.5135,VALID,256,VALID,0.579297,
2011-07-03, 02:22:05,VALID,917.088,VALID,0,VALID,91.9003,VALID,0,VALID,18.494,VALID,256,VALID,0.404687,
2011-07-03, 02:23:05,VALID,917.075,VALID,0,VALID,92.2281,VALID,0,VALID,18.4745,VALID,256,VALID,0.509375,
2011-07-03, 02:24:05,VALID,917.042,VALID,0,VALID,92.5635,VALID,0,VALID,18.4745,VALID,256,VALID,0.665625,
2011-07-03, 02:25:05,VALID,917.029,VALID,0,VALID,92.3729,VALID,0,VALID,18.4355,VALID,256,VALID,0.405859,
2011-07-03, 02:26:05,VALID,917.004,VALID,0,VALID,93.1581,VALID,0,VALID,18.4369,VALID,256,VALID,0.430859,
2011-07-03, 02:27:05,VALID,917.053,VALID,0,VALID,93.1886,VALID,0,VALID,18.4174,VALID,256,VALID,0.276563,
2011-07-03, 02:28:05,VALID,917.025,VALID,0,VALID,93.3259,VALID,0,VALID,18.377,VALID,256,VALID,0.521094,
2011-07-03, 02:29:05,VALID,917.028,VALID,0,VALID,93.0972,VALID,0,VALID,18.3575,VALID,256,VALID,0.356641,
2011-07-03, 02:30:05,VALID,917.014,VALID,0,VALID,92.411,VALID,0,VALID,18.299,VALID,256,VALID,0.190234,
2011-07-03, 02:31:05,VALID,916.985,VALID,0,VALID,92.4187,VALID,0,VALID,18.299,VALID,256,VALID,0,
2011-07-03, 02:32:05,VALID,916.969,VALID,0,VALID,92.5559,VALID,0,VALID,18.2601,VALID,256,VALID,0,
2011-07-03, 02:33:05,VALID,917.003,VALID,0,VALID,92.411,VALID,0,VALID,18.2615,VALID,256,VALID,0.211328,
2011-07-03, 02:34:05,VALID,917.005,VALID,0,VALID,92.3729,VALID,0,VALID,18.2211,VALID,256,VALID,0.434766,
2011-07-03, 02:35:05,VALID,916.996,VALID,0,VALID,92.19,VALID,0,VALID,18.1821,VALID,256,VALID,0.230859,
2011-07-03, 02:36:05,VALID,917,VALID,0,VALID,92.19,VALID,0,VALID,18.1626,VALID,256,VALID,0.601172,
2011-07-03, 02:37:05,VALID,916.976,VALID,0,VALID,92.1747,VALID,0,VALID,18.1626,VALID,256,VALID,0.860937,
2011-07-03, 02:38:05,VALID,916.971,VALID,0,VALID,91.8545,VALID,0,VALID,18.1821,VALID,256,VALID,0.978125,
2011-07-03, 02:39:05,VALID,916.958,VALID,0,VALID,91.9003,VALID,0,VALID,18.1236,VALID,256,VALID,1.05313,
2011-07-03, 02:40:05,VALID,916.962,VALID,0,VALID,91.885,VALID,0,VALID,18.1041,VALID,256,VALID,1.20469,
2011-07-03, 02:41:05,VALID,916.964,VALID,0,VALID,91.481,VALID,0,VALID,18.0275,VALID,256,VALID,1.03086,
2011-07-03, 02:42:05,VALID,916.997,VALID,0,VALID,91.359,VALID,0,VALID,17.9482,VALID,256,VALID,0.595703,
2011-07-03, 02:43:05,VALID,917.005,VALID,0,VALID,92.19,VALID,0,VALID,17.9287,VALID,256,VALID,0.185156,
2011-07-03, 02:44:05,VALID,917.012,VALID,0,VALID,92.3882,VALID,0,VALID,17.9496,VALID,256,VALID,0,
2011-07-03, 02:45:05,VALID,916.994,VALID,0,VALID,91.9536,VALID,0,VALID,17.8897,VALID,256,VALID,0,
2011-07-03, 02:46:05,VALID,916.973,VALID,0,VALID,92.0146,VALID,0,VALID,17.8897,VALID,256,VALID,0.183594,
2011-07-03, 02:47:05,VALID,916.96,VALID,0,VALID,92.3424,VALID,0,VALID,17.9482,VALID,256,VALID,0.469531,
2011-07-03, 02:48:05,VALID,916.915,VALID,0,VALID,89.3541,VALID,0,VALID,17.9092,VALID,256,VALID,1.01992,
2011-07-03, 02:49:05,VALID,916.949,VALID,0,VALID,90.3299,VALID,0,VALID,17.7936,VALID,256,VALID,0.630078,
2011-07-03, 02:50:05,VALID,916.95,VALID,0,VALID,91.946,VALID,0,VALID,17.7533,VALID,256,VALID,0.232031,
2011-07-03, 02:51:05,VALID,916.957,VALID,0,VALID,91.6563,VALID,0,VALID,17.6559,VALID,256,VALID,0.649609,
2011-07-03, 02:52:05,VALID,916.962,VALID,0,VALID,93.0057,VALID,0,VALID,17.6962,VALID,256,VALID,0.275781,
2011-07-03, 02:53:05,VALID,916.968,VALID,0,VALID,93.2954,VALID,0,VALID,17.7352,VALID,256,VALID,0.285156,
2011-07-03, 02:54:05,VALID,916.972,VALID,0,VALID,92.7389,VALID,0,VALID,17.7547,VALID,256,VALID,0.0597656,
2011-07-03, 02:55:05,VALID,916.995,VALID,0,VALID,92.5178,VALID,0,VALID,17.7741,VALID,256,VALID,0.398047,
2011-07-03, 02:56:05,VALID,917.011,VALID,0,VALID,92.5711,VALID,0,VALID,17.8131,VALID,256,VALID,0.537109,
2011-07-03, 02:57:05,VALID,916.987,VALID,0,VALID,92.2433,VALID,0,VALID,17.8911,VALID,256,VALID,0.526953,
2011-07-03, 02:58:05,VALID,916.998,VALID,0,VALID,92.007,VALID,0,VALID,17.9106,VALID,256,VALID,0.344922,
2011-07-03, 02:59:05,VALID,916.992,VALID,0,VALID,92.0832,VALID,0,VALID,17.9496,VALID,256,VALID,0.725781,
2011-07-03, 03:00:05,VALID,916.987,VALID,0,VALID,91.4276,VALID,0,VALID,17.9301,VALID,256,VALID,0.653125,
2011-07-03, 03:01:05,VALID,916.979,VALID,0,VALID,91.7326,VALID,0,VALID,17.9301,VALID,256,VALID,0.577734,
2011-07-03, 03:02:05,VALID,916.927,VALID,0,VALID,91.6182,VALID,0,VALID,17.9287,VALID,256,VALID,0.202344,
2011-07-03, 03:03:05,VALID,916.893,VALID,0,VALID,91.8469,VALID,0,VALID,17.9496,VALID,256,VALID,0.163281,
2011-07-03, 03:04:05,VALID,916.859,VALID,0,VALID,92.0146,VALID,0,VALID,17.9691,VALID,256,VALID,0.295312,
2011-07-03, 03:05:05,VALID,916.851,VALID,0,VALID,91.4657,VALID,0,VALID,17.9886,VALID,256,VALID,0.334766,
2011-07-03, 03:06:05,VALID,916.809,VALID,0,VALID,91.1989,VALID,0,VALID,17.9691,VALID,256,VALID,0.194531,
2011-07-03, 03:07:05,VALID,916.836,VALID,0,VALID,91.0465,VALID,0,VALID,17.9301,VALID,256,VALID,0.142969,
2011-07-03, 03:08:05,VALID,916.854,VALID,0,VALID,91.2447,VALID,0,VALID,17.9106,VALID,256,VALID,0,
2011-07-03, 03:09:05,VALID,916.838,VALID,0,VALID,91.4048,VALID,0,VALID,17.8521,VALID,256,VALID,0,
2011-07-03, 03:10:05,VALID,916.866,VALID,0,VALID,91.885,VALID,0,VALID,17.8521,VALID,256,VALID,0,
2011-07-03, 03:11:05,VALID,916.844,VALID,0,VALID,91.9841,VALID,0,VALID,17.8313,VALID,256,VALID,0,
2011-07-03, 03:12:05,VALID,916.805,VALID,0,VALID,92.1595,VALID,0,VALID,17.9314,VALID,256,VALID,0,
2011-07-03, 03:13:05,VALID,916.785,VALID,0,VALID,91.7402,VALID,0,VALID,17.9886,VALID,256,VALID,0.285937,
2011-07-03, 03:14:05,VALID,916.78,VALID,0,VALID,91.2066,VALID,0,VALID,18.086,VALID,256,VALID,0.575391,
2011-07-03, 03:15:05,VALID,916.793,VALID,0,VALID,90.4137,VALID,0,VALID,18.1041,VALID,256,VALID,0.778906,
2011-07-03, 03:16:05,VALID,916.783,VALID,0,VALID,90.0097,VALID,0,VALID,18.0846,VALID,256,VALID,0.691016,
2011-07-03, 03:17:05,VALID,916.767,VALID,0,VALID,90.0021,VALID,0,VALID,18.0262,VALID,256,VALID,0.620703,
2011-07-03, 03:18:05,VALID,916.782,VALID,0,VALID,90.6119,VALID,0,VALID,18.0275,VALID,256,VALID,0.592578,
2011-07-03, 03:19:05,VALID,916.761,VALID,0,VALID,90.1469,VALID,0,VALID,17.9872,VALID,256,VALID,0.625,
2011-07-03, 03:20:05,VALID,916.791,VALID,0,VALID,90.2384,VALID,0,VALID,17.9301,VALID,256,VALID,0.523047,
2011-07-03, 03:21:05,VALID,916.776,VALID,0,VALID,90.9169,VALID,0,VALID,17.8508,VALID,256,VALID,0.419531,
2011-07-03, 03:22:05,VALID,916.745,VALID,0,VALID,91.0388,VALID,0,VALID,17.7936,VALID,256,VALID,0.249219,
2011-07-03, 03:23:04,VALID,916.737,VALID,0,VALID,91.1989,VALID,0,VALID,17.7547,VALID,256,VALID,0.0238281,
2011-07-03, 03:24:04,VALID,916.74,VALID,0,VALID,91.4505,VALID,0,VALID,17.7157,VALID,256,VALID,0,
2011-07-03, 03:25:04,VALID,916.708,VALID,0,VALID,91.481,VALID,0,VALID,17.6767,VALID,256,VALID,0,
2011-07-03, 03:26:04,VALID,916.711,VALID,0,VALID,91.5801,VALID,0,VALID,17.6559,VALID,256,VALID,0,
2011-07-03, 03:27:04,VALID,916.645,VALID,0,VALID,91.7859,VALID,0,VALID,17.6572,VALID,256,VALID,0,
2011-07-03, 03:28:04,VALID,916.639,VALID,0,VALID,92.2738,VALID,0,VALID,17.6572,VALID,256,VALID,0,
2011-07-03, 03:29:04,VALID,916.633,VALID,0,VALID,92.3806,VALID,0,VALID,17.6767,VALID,256,VALID,0,
2011-07-03, 03:30:04,VALID,916.657,VALID,0,VALID,92.2128,VALID,0,VALID,17.6767,VALID,256,VALID,0.169141,
2011-07-03, 03:31:04,VALID,916.628,VALID,0,VALID,92.2433,VALID,0,VALID,17.6962,VALID,256,VALID,0.395703,
2011-07-03, 03:32:04,VALID,916.616,VALID,0,VALID,91.946,VALID,0,VALID,17.7352,VALID,256,VALID,0.45625,
2011-07-03, 03:33:04,VALID,916.67,VALID,0,VALID,92.0299,VALID,0,VALID,17.7143,VALID,256,VALID,0.494922,
2011-07-03, 03:34:04,VALID,916.655,VALID,0,VALID,92.2433,VALID,0,VALID,17.7547,VALID,256,VALID,0.584766,
2011-07-03, 03:35:04,VALID,916.687,VALID,0,VALID,92.1442,VALID,0,VALID,17.7352,VALID,256,VALID,0.502734,
2011-07-03, 03:36:04,VALID,916.709,VALID,0,VALID,92.129,VALID,0,VALID,17.7547,VALID,256,VALID,0.58125,
2011-07-03, 03:37:04,VALID,916.732,VALID,0,VALID,91.946,VALID,0,VALID,17.7741,VALID,256,VALID,0.465625,
2011-07-03, 03:38:04,VALID,916.746,VALID,0,VALID,91.8622,VALID,0,VALID,17.7741,VALID,256,VALID,0.704297,
2011-07-03, 03:39:04,VALID,916.757,VALID,0,VALID,91.7402,VALID,0,VALID,17.8131,VALID,256,VALID,0.665234,
2011-07-03, 03:40:04,VALID,916.772,VALID,0,VALID,91.1608,VALID,0,VALID,17.7936,VALID,256,VALID,0.478516,
2011-07-03, 03:41:04,VALID,916.756,VALID,0,VALID,91.6258,VALID,0,VALID,17.7936,VALID,256,VALID,0.687891,
2011-07-03, 03:42:04,VALID,916.777,VALID,0,VALID,91.4581,VALID,0,VALID,17.7728,VALID,256,VALID,1.10312,
2011-07-03, 03:43:04,VALID,916.807,VALID,0,VALID,91.1837,VALID,0,VALID,17.8131,VALID,256,VALID,0.998047,
2011-07-03, 03:44:04,VALID,916.781,VALID,0,VALID,90.8254,VALID,0,VALID,17.8131,VALID,256,VALID,0.563672,
2011-07-03, 03:45:04,VALID,916.763,VALID,0,VALID,90.9245,VALID,0,VALID,17.7936,VALID,256,VALID,0.471094,
2011-07-03, 03:46:04,VALID,916.743,VALID,0,VALID,90.9092,VALID,0,VALID,17.7936,VALID,256,VALID,0.570703,